Temperature
17 17 17 17 17 17 17 17 17 17 17 17 17 17 17 17 17 17 17 17 17 17 17 17 16 16 16 16 16 16 16 16 16 16 16 16 16 16 16 16 15 15 15
17 17 17 17 17 17 17 17 17 17 17 17 17 17 17 17 17 16 17 17 17 17 17 17 17 16 16 16 16 16 16 16 16 16 16 16 16 15 15 16 15 15 15
17 17 17 17 17 17 17 17 17 17 17 17 17 17 17 17 17 16 16 16 17 17 17 17 17 16 16 16 16 16 16 16 16 16 16 16 16 16 15 15 15 15 15
17 17 17 17 17 17 17 17 17 17 17 17 17 17 17 17 17 17 17 16 16 16 17 17 17 17 16 16 16 16 16 16 16 16 16 16 16 16 16 16 15 15 15
17 17 17 17 17 17 17 17 17 17 17 17 17 17 17 17 17 17 17 17 17 16 16 17 17 17 17 16 16 16 16 16 16 16 16 16 16 16 16 16 16 15 15
17 17 17 17 17 17 17 17 17 17 17 17 18 18 17 17 17 17 17 17 17 17 17 16 16 17 17 17 16 16 16 16 16 16 16 16 16 16 16 16 15 15 15
17 17 17 17 17 17 17 17 17 17 17 17 17 17 18 18 17 17 17 17 17 17 16 16 16 16 16 16 16 16 16 16 16 16 16 16 16 16 16 15 15 15 15
17 17 17 17 17 17 17 17 17 17 17 17 17 18 18 18 18 18 17 17 17 17 17 17 16 16 16 16 16 16 16 16 16 16 16 16 16 16 16 15 15 15 15
17 17 17 17 17 17 17 17 17 17 17 17 17 17 18 19 18 18 17 17 17 17 17 17 16 16 16 16 16 16 16 16 16 16 16 16 16 16 15 15 15 15 15
17 17 17 17 17 17 17 17 17 17 17 17 17 17 17 17 18 18 17 17 17 17 17 16 16 16 16 16 16 16 16 16 16 16 16 16 15 15 15 15 15 15 15
17 17 17 17 17 17 17 17 17 17 17 17 17 17 17 17 17 17 17 17 17 17 16 16 16 16 16 16 16 16 16 16 16 16 16 16 15 15 15 15 15 15 15
17 17 17 17 17 17 17 17 17 17 17 17 17 17 17 17 17 17 17 17 17 17 16 16 16 16 16 16 16 16 16 16 16 16 16 15 15 15 15 15 15 15 15
17 17 17 17 17 17 17 17 17 17 17 17 17 17 17 17 17 17 17 17 16 16 16 16 16 16 16 15 15 15 16 15 15 15 15 15 15 15 15 15 15 15 15
17 17 17 17 17 16 16 17 17 17 17 17 17 17 16 16 16 16 16 16 16 16 16 16 16 15 15 15 15 15 15 15 15 15 15 15 15 15 15 14 14 14 14
17 17 17 17 17 17 17 17 17 17 17 17 16 16 16 16 16 16 16 16 16 16 16 15 15 15 15 15 15 14 14 14 14 15 15 14 14 14 14 14 14 14 14
17 17 16 16 16 16 16 16 16 16 16 16 16 16 16 16 16 15 16 16 16 16 15 15 15 15 14 14 14 14 14 14 14 14 14 14 14 14 14 14 13 13 13
17 17 17 16 16 16 16 16 16 16 16 16 16 16 16 16 15 15 15 15 15 15 15 15 14 14 14 14 14 13 13 13 13 13 13 13 13 13 13 13 13 13 13
17 16 16 16 16 16 16 16 16 15 15 15 15 15 15 15 15 15 15 15 15 15 14 14 14 14 13 13 13 13 13 13 13 13 13 13 12 12 12 12 12 12 12
17 16 16 16 16 16 16 16 15 15 15 15 15 15 15 15 15 14 15 14 14 14 14 14 13 13 13 13 13 12 12 12 12 12 12 12 12 12 11 11 11 11 11
16 16 16 16 16 16 16 15 15 15 15 15 15 15 14 14 14 14 14 14 14 14 13 13 13 13 13 12 12 12 12 11 11 11 11 11 11 11 11 11 11 10 10
16 16 15 15 15 15 15 15 15 14 14 14 14 14 14 14 14 14 13 13 13 13 13 13 12 12 12 11 11 11 11 11 11 10 10 10 10 10 10 10 10 10 10
16 15 15 15 15 15 15 15 14 14 14 14 13 13 13 13 13 13 13 13 13 12 12 12 12 11 11 11 11 11 11 11 10 10 10 10 9 9 9 9 9 9 9
15 15 15 14 14 14 14 14 14 14 13 13 13 13 12 12 12 12 12 12 12 12 12 11 11 11 11 10 10 10 10 10 10 9 9 9 9 9 8 8 8 8 8
15 15 14 14 14 14 14 14 13 13 13 13 12 12 12 12 12 12 11 11 11 11 11 11 11 10 10 10 10 10 10 9 9 9 9 9 9 8 8 8 8 8 8
14 14 14 13 13 13 13 13 13 13 12 12 12 12 11 11 11 11 11 11 11 10 10 10 10 10 10 10 10 10 9 10 9 9 9 9 8 8 8 8 8 7 7
14 14 13 13 13 13 13 13 12 12 12 12 11 11 11 11 11 11 10 10 10 10 10 9 9 9 9 9 9 9 9 9 10 9 8 9 9 8 8 8 7 7 7
Wind_Speed
2 3 2 1 2 3 4 3 2 2 2 2 2 2 2 2 2 3 7 9 7 7 7 7 8 8 8 8 8 8 8 8 8 8 8 8 8 9 9 8 8 7 7
1 2 3 2 1 2 1 1 2 3 2 1 2 2 2 2 3 2 4 8 9 8 7 7 8 8 9 8 9 9 9 8 9 9 9 9 9 9 9 9 9 9 8
1 2 1 2 2 2 2 2 2 2 3 3 2 3 3 2 2 2 3 4 7 10 9 8 8 8 9 9 9 9 10 10 10 10 10 10 10 10 10 10 10 10 10
2 3 2 2 2 3 3 2 3 3 2 3 2 2 2 3 3 4 4 5 5 6 10 11 9 9 9 10 10 10 10 11 11 12 12 12 11 11 11 11 11 11 12
3 4 3 2 3 3 3 3 2 3 3 3 3 3 3 3 3 4 4 5 5 5 6 10 11 11 11 10 10 10 11 11 12 13 13 13 13 13 13 13 13 13 13
4 4 4 3 4 3 3 3 3 3 4 4 4 3 4 4 4 4 5 5 5 6 6 6 8 10 12 12 11 12 11 12 12 13 14 14 15 14 14 14 14 14 15
4 4 4 3 4 4 4 5 4 5 4 3 3 4 4 5 4 4 4 4 4 5 5 5 6 7 8 13 13 12 12 12 13 13 14 15 14 14 15 15 15 16 16
5 4 4 4 4 4 5 5 5 4 4 4 3 3 3 3 4 4 3 4 4 4 4 5 5 6 7 6 8 11 11 12 12 13 14 14 15 16 16 16 17 17 17
4 4 4 5 4 5 5 5 5 6 5 4 4 3 3 2 1 3 2 3 3 3 4 4 5 5 6 6 5 7 9 10 10 11 12 12 13 15 16 17 17 17 18
4 5 5 5 5 5 5 6 5 5 5 5 4 4 5 3 3 2 3 3 3 3 3 3 3 3 4 4 4 3 5 8 9 9 10 11 12 13 15 16 16 16 16
3 4 5 5 5 5 5 5 4 5 5 5 4 4 4 4 5 4 3 2 2 2 2 2 2 2 2 2 2 1 2 5 6 7 8 9 9 10 11 12 13 13 13
2 3 4 4 4 4 5 5 5 5 5 5 4 4 4 4 4 4 4 3 2 1 1 1 2 2 2 1 1 3 2 1 2 3 5 6 7 8 8 9 10 11 12
2 2 3 3 3 3 4 4 4 4 5 5 5 4 4 5 4 4 4 4 3 2 2 2 1 0 0 0 1 4 2 2 1 1 2 3 4 4 4 4 5 7 7
2 2 2 2 3 3 3 3 4 4 4 4 5 4 4 4 4 3 4 4 4 4 3 3 0 1 2 2 4 3 3 4 3 3 2 2 1 1 1 1 1 2 3
1 1 1 1 2 2 2 2 2 3 3 4 4 4 4 3 3 4 4 5 5 5 4 2 1 1 2 2 3 3 4 7 6 5 4 4 3 2 2 1 1 1 1
1 1 1 1 1 1 1 2 2 2 2 2 2 2 3 3 3 3 4 4 5 4 3 2 1 0 2 2 5 5 5 9 8 7 6 6 6 5 5 4 4 3 2
1 0 0 0 1 1 1 1 1 1 1 1 1 2 2 3 2 2 2 3 3 3 3 3 1 1 2 2 3 4 4 5 8 10 9 9 9 9 9 8 7 7 6
1 1 0 1 1 1 1 1 1 0 0 0 1 1 2 2 2 2 2 2 2 2 3 3 1 1 1 2 3 3 4 6 8 11 11 10 10 10 10 10 10 9 9
2 2 2 2 2 2 2 2 2 2 2 2 2 2 2 2 2 2 2 2 1 1 1 2 1 0 1 1 2 3 4 4 5 8 9 10 10 11 11 11 11 10 9
3 3 3 3 3 3 3 3 3 3 4 4 4 4 4 4 3 2 1 1 1 1 2 2 2 1 1 1 1 1 2 2 3 4 7 7 9 9 11 11 10 10 9
4 4 4 4 4 4 4 4 4 4 5 5 6 6 7 8 9 7 4 4 3 1 1 2 2 1 1 1 1 0 1 2 3 3 3 4 5 6 7 9 9 9 9
5 5 5 5 5 5 9 8 5 5 5 5 6 6 7 8 10 10 11 11 8 4 3 2 2 2 1 1 0 0 1 1 1 2 2 3 4 4 5 8 9 8 8
5 6 6 6 7 8 9 8 7 6 6 6 6 5 5 6 7 7 8 9 10 9 6 4 3 3 2 1 1 1 1 1 2 1 1 2 2 3 4 8 8 7 7
6 6 5 6 7 7 7 7 6 6 7 7 6 6 6 6 6 5 6 7 8 8 7 5 5 4 4 3 1 1 2 3 3 2 1 1 1 1 3 5 6 5 4
6 6 5 6 6 6 7 5 4 6 6 7 6 6 5 6 6 5 5 7 7 7 9 9 7 6 7 7 5 2 2 2 2 2 1 0 0 1 1 2 4 5 5
6 6 6 6 6 6 7 6 4 4 5 5 5 6 9 7 7 6 5 5 6 5 5 6 6 5 5 6 5 3 2 1 1 2 2 1 0 0 0 2 2 3 4
Wind_Direction
158 145 133 140 148 144 159 167 144 135 152 158 157 154 144 116 124 138 138 154 171 179 182 184 186 187 186 185 187 189 190 191 192 193 194 195 196 197 196 198 200 201 201
165 191 180 182 176 170 138 183 163 175 189 165 174 169 196 162 147 179 160 163 177 187 194 197 197 196 196 197 198 199 201 201 202 202 203 206 209 209 208 208 211 212 214
186 231 210 203 190 177 180 206 203 201 204 194 185 192 199 203 174 189 194 185 181 186 194 201 206 208 210 210 210 211 213 214 212 211 211 214 216 218 219 219 220 221 221
224 241 237 224 215 220 211 209 226 222 216 222 211 219 207 194 204 209 208 204 211 197 189 195 206 212 216 219 219 219 220 221 221 220 220 220 223 224 224 226 227 229 226
245 244 250 257 248 236 231 237 208 243 229 236 223 214 228 221 214 218 226 223 214 219 205 184 199 212 219 224 226 226 228 228 228 229 228 227 228 229 229 230 232 233 232
247 253 243 238 250 242 238 238 238 239 243 240 254 234 232 232 232 226 231 228 224 224 225 210 203 208 214 224 231 232 232 233 233 234 233 232 233 233 234 234 235 235 236
252 254 263 239 246 240 248 244 244 233 234 233 245 240 229 228 229 231 236 237 230 230 234 232 234 233 213 213 224 231 234 236 236 236 236 234 234 235 235 235 237 237 237
251 243 248 253 247 247 244 248 241 255 247 228 249 257 244 213 212 217 221 230 239 232 233 234 239 242 253 239 217 218 231 239 241 240 239 239 238 237 237 238 238 238 238
247 259 260 262 260 249 241 244 238 242 248 238 242 260 268 259 245 187 206 229 231 236 244 241 238 237 242 252 245 212 223 236 244 248 244 242 242 241 241 240 240 239 239
249 252 255 258 259 258 250 245 236 241 244 246 235 243 265 293 270 239 203 194 211 237 257 264 261 247 243 249 253 256 228 237 241 247 249 249 247 247 245 243 242 241 240
247 256 260 258 250 251 251 252 249 245 239 244 246 242 248 248 249 256 255 231 220 228 247 265 278 277 267 265 269 269 213 233 236 243 249 251 251 249 246 242 241 241 241
242 252 258 256 250 249 248 247 245 239 243 246 247 244 247 251 250 249 251 246 244 235 248 274 267 273 283 285 315 64 117 198 243 258 262 263 260 255 251 249 249 249 249
267 270 271 264 262 255 250 248 241 248 243 243 245 245 249 255 264 260 253 258 265 265 254 248 250 269 31 29 36 82 98 110 95 336 303 283 277 265 256 254 256 256 259
304 312 284 271 269 267 260 248 248 249 246 245 248 256 257 257 258 257 257 259 262 265 260 253 257 73 66 59 67 88 80 98 86 73 58 38 20 8 346 310 285 269 266
297 324 315 303 297 282 270 254 246 256 254 246 247 246 248 254 256 255 250 250 254 261 269 252 215 82 78 75 79 82 76 84 83 72 63 55 48 39 29 25 20 350 328
334 324 328 310 305 302 290 273 259 251 244 252 258 266 264 262 265 260 258 260 260 260 268 286 264 188 63 78 97 90 89 87 79 77 71 64 59 54 52 47 41 39 38
4 348 298 322 337 338 328 308 288 264 241 261 269 260 268 283 286 279 268 261 257 241 241 266 247 128 95 63 81 82 83 78 75 73 74 71 66 63 61 57 52 49 50
40 23 21 37 21 22 20 18 333 7 269 342 348 341 318 311 314 311 302 279 268 245 219 225 226 159 105 83 79 75 73 74 77 77 77 76 74 70 65 62 58 57 55
65 64 57 49 43 47 53 51 50 50 51 46 38 25 359 346 341 343 330 318 297 223 173 181 193 111 87 79 86 91 81 77 80 92 90 83 79 74 67 62 59 59 60
83 74 66 60 60 59 62 65 71 68 62 52 44 39 25 15 3 3 22 27 45 110 135 150 145 121 92 83 74 104 101 85 65 65 74 83 90 85 75 67 62 61 62
88 84 78 69 61 61 57 64 78 76 71 64 58 55 53 53 45 38 41 42 46 62 92 109 115 97 64 66 22 347 108 118 84 57 71 72 78 75 77 71 64 65 69
83 82 79 76 67 62 53 47 55 78 73 70 68 65 68 68 70 68 61 55 46 50 58 70 76 76 49 9 332 135 118 130 80 33 50 58 58 63 69 66 68 72 74
95 87 84 83 80 67 55 55 52 75 77 72 69 66 67 68 70 78 86 86 69 55 45 52 64 44 45 25 353 90 78 70 69 60 52 65 53 60 77 82 83 78 78
104 96 91 91 90 77 60 60 61 84 82 78 73 70 71 67 57 62 82 80 73 60 54 61 63 46 38 17 358 97 130 130 118 89 14 53 59 58 83 96 107 102 99
111 107 100 97 95 83 55 42 36 93 89 82 74 66 66 73 41 28 84 86 81 80 80 78 72 69 60 42 20 49 100 124 108 93 46 13 88 79 97 99 132 152 144
120 112 99 92 90 86 56 30 2 100 98 96 88 79 65 59 36 21 77 85 85 77 77 88 90 89 77 70 52 27 19 54 74 83 54 327 24 266 102 83 86 119 143
Height
1577 1578 1577 1578 1580 1580 1580 1581 1581 1582 1582 1582 1583 1583 1584 1584 1584 1585 1584 1583 1583 1584 1584 1585 1585 1586 1587 1587 1588 1589 1589 1590 1591 1591 1592 1592 1593 1594 1594 1595 1595 1596 1596
1577 1578 1578 1578 1579 1580 1580 1581 1581 1581 1582 1582 1583 1583 1583 1584 1583 1584 1584 1583 1583 1583 1584 1584 1585 1585 1586 1587 1587 1588 1589 1589 1590 1590 1591 1591 1592 1593 1593 1594 1594 1595 1595
1576 1577 1578 1578 1579 1579 1579 1580 1581 1581 1582 1582 1582 1582 1583 1583 1583 1583 1584 1584 1584 1583 1583 1584 1584 1585 1585 1586 1586 1587 1587 1588 1589 1589 1590 1590 1590 1591 1592 1592 1593 1593 1594
1576 1576 1577 1578 1578 1579 1579 1579 1580 1581 1581 1581 1582 1582 1582 1582 1582 1582 1583 1583 1583 1584 1583 1583 1583 1584 1584 1584 1585 1585 1586 1587 1587 1587 1588 1588 1589 1589 1590 1590 1591 1591 1592
1575 1575 1576 1577 1577 1578 1578 1579 1579 1580 1580 1580 1581 1581 1581 1581 1581 1581 1582 1582 1582 1582 1582 1582 1582 1582 1583 1583 1583 1584 1584 1585 1585 1585 1586 1586 1587 1587 1587 1588 1588 1589 1589
1573 1574 1575 1575 1576 1577 1577 1577 1577 1578 1578 1579 1580 1580 1580 1580 1580 1580 1580 1581 1581 1581 1581 1581 1581 1581 1581 1581 1582 1582 1582 1582 1582 1583 1583 1583 1584 1584 1585 1585 1586 1586 1587
1572 1572 1573 1573 1574 1575 1575 1576 1576 1577 1577 1577 1578 1578 1578 1578 1578 1578 1579 1579 1580 1580 1579 1579 1579 1580 1580 1579 1579 1579 1580 1580 1580 1580 1580 1581 1581 1581 1581 1582 1582 1583 1583
1570 1570 1570 1571 1571 1572 1572 1573 1574 1575 1575 1576 1576 1576 1576 1577 1576 1576 1576 1577 1577 1578 1577 1577 1577 1577 1577 1578 1577 1577 1577 1577 1577 1577 1577 1577 1578 1578 1578 1578 1579 1579 1579
1568 1568 1568 1568 1569 1570 1570 1571 1571 1572 1573 1574 1574 1575 1575 1574 1575 1575 1574 1575 1575 1575 1575 1575 1575 1575 1574 1575 1575 1574 1574 1574 1574 1574 1574 1574 1574 1574 1574 1574 1575 1575 1575
1566 1566 1566 1566 1566 1567 1567 1568 1569 1570 1570 1571 1572 1572 1573 1573 1573 1573 1573 1573 1573 1573 1573 1573 1573 1572 1572 1572 1571 1571 1571 1571 1571 1571 1571 1571 1571 1570 1570 1570 1570 1571 1571
1563 1563 1563 1564 1564 1564 1565 1565 1566 1567 1568 1569 1570 1570 1570 1570 1571 1571 1571 1571 1571 1571 1571 1570 1570 1570 1570 1569 1569 1569 1568 1568 1567 1567 1567 1567 1566 1566 1566 1566 1566 1566 1566
1562 1562 1562 1561 1562 1562 1563 1563 1564 1565 1565 1566 1566 1567 1568 1568 1568 1568 1568 1568 1569 1569 1568 1568 1568 1568 1567 1567 1567 1566 1565 1565 1564 1564 1564 1563 1563 1562 1562 1562 1562 1562 1562
1561 1560 1560 1560 1560 1560 1561 1561 1562 1562 1563 1563 1564 1564 1565 1565 1566 1566 1566 1566 1566 1566 1566 1566 1566 1565 1565 1565 1564 1563 1563 1562 1561 1561 1560 1560 1559 1558 1558 1558 1557 1557 1557
1560 1559 1558 1558 1558 1559 1559 1559 1559 1560 1560 1560 1561 1561 1561 1562 1562 1563 1563 1564 1563 1564 1564 1564 1564 1563 1563 1563 1562 1561 1560 1559 1559 1558 1557 1556 1556 1555 1555 1554 1553 1553 1553
1558 1558 1557 1557 1557 1557 1557 1557 1557 1557 1558 1558 1558 1558 1558 1559 1559 1560 1560 1561 1562 1561 1561 1562 1561 1561 1561 1560 1559 1559 1558 1557 1556 1555 1554 1554 1553 1552 1551 1550 1550 1549 1549
1557 1557 1556 1556 1556 1556 1555 1555 1555 1555 1555 1555 1555 1555 1555 1556 1556 1557 1557 1558 1558 1559 1558 1558 1559 1558 1558 1558 1557 1557 1556 1555 1554 1553 1552 1551 1550 1549 1548 1547 1546 1546 1545
1557 1556 1556 1555 1555 1554 1554 1554 1554 1554 1554 1553 1553 1553 1553 1554 1554 1554 1554 1555 1555 1555 1555 1555 1556 1555 1555 1555 1555 1555 1555 1553 1552 1551 1550 1549 1548 1547 1546 1544 1544 1543 1542
1556 1555 1555 1554 1554 1553 1553 1553 1552 1553 1553 1552 1552 1552 1552 1552 1551 1552 1552 1552 1552 1552 1553 1552 1553 1553 1553 1553 1553 1553 1553 1552 1551 1549 1548 1547 1546 1545 1544 1542 1541 1540 1539
1556 1555 1554 1554 1553 1553 1552 1552 1552 1552 1552 1551 1551 1551 1550 1550 1550 1550 1549 1549 1549 1550 1550 1550 1550 1550 1551 1551 1551 1551 1550 1550 1549 1548 1547 1546 1545 1544 1543 1541 1540 1539 1538
1555 1555 1554 1554 1553 1553 1552 1552 1552 1551 1551 1551 1550 1550 1549 1549 1548 1548 1548 1547 1547 1547 1547 1548 1548 1548 1549 1548 1549 1549 1549 1548 1548 1548 1546 1545 1544 1543 1542 1541 1539 1538 1537
1555 1554 1554 1554 1553 1553 1552 1552 1551 1551 1551 1550 1550 1549 1548 1548 1547 1546 1546 1546 1546 1546 1546 1546 1547 1547 1547 1547 1547 1547 1547 1547 1546 1546 1546 1545 1544 1543 1541 1540 1539 1538 1536
1555 1555 1554 1554 1554 1553 1552 1552 1551 1551 1550 1550 1549 1549 1548 1547 1546 1546 1545 1545 1545 1545 1545 1546 1546 1546 1545 1545 1545 1546 1546 1546 1545 1546 1545 1544 1543 1542 1541 1540 1539 1538 1536
1555 1555 1555 1555 1554 1553 1553 1552 1551 1551 1550 1550 1550 1549 1549 1548 1547 1547 1546 1545 1545 1545 1545 1546 1545 1545 1545 1544 1544 1545 1544 1545 1544 1544 1544 1543 1543 1542 1542 1540 1539 1537 1536
1555 1555 1555 1554 1554 1553 1553 1552 1551 1551 1550 1550 1550 1549 1549 1548 1548 1548 1548 1547 1546 1546 1546 1546 1545 1545 1544 1544 1544 1544 1544 1544 1543 1543 1543 1543 1542 1542 1541 1540 1538 1537 1536
1555 1555 1555 1555 1554 1553 1553 1553 1552 1552 1551 1551 1550 1550 1550 1549 1549 1549 1549 1548 1548 1548 1547 1546 1546 1545 1544 1544 1544 1544 1544 1544 1544 1543 1543 1543 1542 1542 1541 1540 1538 1537 1536
1554 1555 1555 1555 1554 1554 1553 1553 1553 1553 1552 1552 1551 1550 1550 1550 1550 1549 1549 1549 1549 1549 1549 1548 1547 1546 1546 1545 1544 1544 1544 1544 1544 1543 1542 1542 1542 1541 1541 1540 1539 1537 1536